This is the latest recevied weather packets stored in our database for station/object DF7PN-WX. If no packets are shown the sender has not sent any weather packets the latest 10 day(s).
| Time | Temp. | Humidity | Pressure | Rain* | Wind** | Luminosity | Snow |
|---|---|---|---|---|---|---|---|
| 1777722013 | 22.22° C | 38% | 1020.2 hPa | - | - | - | - |
| 1777721713 | 22.22° C | 39% | 1020.2 hPa | - | - | - | - |
| 1777721412 | 21.67° C | 37% | 1020.3 hPa | - | - | - | - |
| 1777721112 | 22.22° C | 39% | 1020.4 hPa | - | - | - | - |
| 1777720812 | 22.22° C | 39% | 1020.4 hPa | - | - | - | - |
| 1777720512 | 21.67° C | 39% | 1020.5 hPa | - | - | - | - |
| 1777720212 | 21.67° C | 39% | 1020.5 hPa | - | - | - | - |
| 1777719912 | 21.67° C | 39% | 1020.6 hPa | - | - | - | - |
| 1777719612 | 21.67° C | 40% | 1020.7 hPa | - | - | - | - |
| 1777719312 | 21.67° C | 39% | 1020.7 hPa | - | - | - | - |
| 1777719012 | 21.11° C | 39% | 1020.7 hPa | - | - | - | - |
| 1777718712 | 21.11° C | 41% | 1020.8 hPa | - | - | - | - |
| 1777718412 | 21.11° C | 40% | 1020.9 hPa | - | - | - | - |
| 1777718112 | 20.56° C | 40% | 1020.9 hPa | - | - | - | - |
| 1777717812 | 21.11° C | 39% | 1020.9 hPa | - | - | - | - |
| 1777717511 | 21.11° C | 39% | 1021 hPa | - | - | - | - |
| 1777717211 | 20.56° C | 40% | 1021.1 hPa | - | - | - | - |
| 1777716911 | 20.56° C | 40% | 1021.2 hPa | - | - | - | - |
| 1777716611 | 20.56° C | 40% | 1021.3 hPa | - | - | - | - |
| 1777716311 | 20° C | 40% | 1021.4 hPa | - | - | - | - |
| 1777716011 | 20° C | 38% | 1021.4 hPa | - | - | - | - |
| 1777715711 | 20° C | 41% | 1021.5 hPa | - | - | - | - |
| 1777715411 | 19.44° C | 42% | 1021.6 hPa | - | - | - | - |
| 1777715111 | 19.44° C | 42% | 1021.6 hPa | - | - | - | - |
| 1777714811 | 18.89° C | 43% | 1021.7 hPa | - | - | - | - |
* Rain since midnight (hover to see other rain measurements)
** Current wind speed in m/s (hover to see current wind gust speed)